UAL2197 MZBZ-KJFK

Flight info

Callsign UAL2197
Flight time N/A
Altitude 41000
Route LITRA1D LITRA UR899 CTM UG765 CZM UB881 CUN UM219 MYDIA M219 KNOST Q109 DFENC DCT SAWED Q108 SIE CAMRN4
Aircraft A359/H-SDE2E3GHIJ3J4J5LM1ORWXY/LB1D1

Departure

Time 2026-04-26 20:46
Airport Philip S. W. Goldson International Airport (MZBZ)

Arrival

Time N/A
Airport John F. Kennedy International Airport (KJFK)
Time Latitude Longitude Altitude Speed Heading
2026-04-26 20:18 17.53735 -88.30606 24 ft 0 kts 164°
2026-04-26 20:36 17.53733 -88.30605 24 ft 4 kts 159°
2026-04-26 20:36 17.53731 -88.30605 24 ft 3 kts 78°
2026-04-26 20:37 17.53729 -88.30620 29 ft 4 kts 124°
2026-04-26 20:37 17.53716 -88.30629 29 ft 4 kts 212°
2026-04-26 20:37 17.53734 -88.30616 29 ft 4 kts 206°
2026-04-26 20:37 17.53758 -88.30611 27 ft 4 kts 166°
2026-04-26 20:38 17.53772 -88.30619 29 ft 4 kts 120°
2026-04-26 20:38 17.53774 -88.30642 29 ft 4 kts 96°
2026-04-26 20:38 17.53777 -88.30663 29 ft 4 kts 85°
2026-04-26 20:38 17.53768 -88.30687 28 ft 4 kts 64°
2026-04-26 20:39 17.53764 -88.30696 27 ft 0 kts 78°
2026-04-26 20:42 17.53764 -88.30694 26 ft 1 kts 78°
2026-04-26 20:42 17.53762 -88.30677 29 ft 3 kts 111°
2026-04-26 20:42 17.53740 -88.30674 28 ft 4 kts 200°
2026-04-26 20:43 17.53733 -88.30706 28 ft 8 kts 264°
2026-04-26 20:43 17.53739 -88.30785 27 ft 15 kts 266°
2026-04-26 20:43 17.53716 -88.30922 23 ft 23 kts 258°
2026-04-26 20:43 17.53676 -88.31117 28 ft 31 kts 257°
2026-04-26 20:44 17.53627 -88.31345 23 ft 34 kts 257°
2026-04-26 20:44 17.53570 -88.31591 24 ft 36 kts 257°
2026-04-26 20:44 17.53550 -88.31679 27 ft 3 kts 257°
2026-04-26 20:44 17.53545 -88.31724 23 ft 9 kts 274°
2026-04-26 20:45 17.53594 -88.31777 28 ft 13 kts 341°
2026-04-26 20:45 17.53684 -88.31770 26 ft 17 kts 52°
2026-04-26 20:45 17.53763 -88.31459 24 ft 75 kts 78°
2026-04-26 20:45 17.53925 -88.30724 29 ft 130 kts 76°
2026-04-26 20:46 17.54166 -88.29662 269 ft 156 kts 77°
2026-04-26 20:46 17.54464 -88.28626 1020 ft 143 kts 70°
2026-04-26 20:46 17.54790 -88.27596 1547 ft 160 kts 78°
2026-04-26 20:46 17.55026 -88.26346 1853 ft 189 kts 80°
2026-04-26 20:47 17.55424 -88.24937 2234 ft 215 kts 64°
2026-04-26 20:47 17.56108 -88.24134 2438 ft 235 kts 38°
2026-04-26 20:47 17.58362 -88.23565 3093 ft 264 kts
2026-04-26 20:47 17.60218 -88.23592 3626 ft 270 kts